STARLINK-1301, 45361

Orbit data source: Space-Track

STARLINK-1301, 45361 is a payload satellite owned by SpaceX/Seattle (US) in LEO that was launched on Wed, 18 Mar 2020 UTC via an FALCON 9 launch vehicle from the Air Force Eastern Test Range (AFETR). Payload-class satellites include a variety of spacecraft equipped with specific instruments for various scientific and technological missions. These include communications satellites like Starlink; space stations such as the ISS; scientific satellites like the Hubble; Earth observation satellites from companies like Planet Labs, Umbra, and HawkEye 360; GPS; miniature CubeSats for education and research; and military/defense satellites.

Loading next visibility...
Identifier
45361, 2020-019B
Orbit
LEO
Country
Flag of USUS
Related business
Manufacturer
SpaceX/Seattle
Mission
Partially operational Commercial Communications
Bus & Motor
STARLINK, Unknown motor
Mass
260 kg wet, ~248 kg dry
Launch date (UTC)
2020-03-18 (6 years ago)
Launch vehicle
FALCON 9
Launch site
Air Force Eastern Test Range (AFETR)
Object type
Payload
Rocket body
Debris
Shape & HBR
Box + 1 Pan, 10.1 m
Radar Cross Section
13.562 m², Large (>1 m²)

Expand to show TLE details & history
Last TLE update: 10 hours ago

TLE from 10 hours ago
0 STARLINK-1301
1 45361U 20019B   26034.65945509  .00102485  00000-0  14190-2 0  9996
2 45361  53.0448 270.0593 0010281  92.8595 267.3592 15.56256495325294
Epoch: 2026-02-03T15:49Z
TLE epoch observation values (Epoch: 2026-02-03T15:49:36.919Z)
Latitude
-0.00006°
Longitude
-101.18179°
Altitude
399.728 km
Speed
7.672 km/s
True Right ascension
18h 00m 14s
True Declination
0° 00' 00"
Sunlit
Object was in daylight at epoch
Visualization orbit readout
Latitude
Unknown
Longitude
Unknown
Altitude
Unknown
Speed
Unknown
Apparent Right ascension
Unknown
Apparent Declination
Unknown
Sunlit
N/A
Visualization observer readout
Local Sidereal Time
03:54:38
Azimuth
Unknown
Elevation
Unknown
Doppler factor
Unknown
Orbital elements
Apogee altitude
405.748 km
Perigee altitude
391.813 km
Semi-major axis
6,776.918 km
Eccentricity
0.00103
Inclination
53.0448°
RAAN
270.0593°
Arg. of periapsis
92.8595°
True anomaly
267.24152°
Mean anomaly
267.3592°
Eccentric anomaly
267.30036°
Mean motion
3.89041 °/min
Orbital period
92.54 mins
BSTAR
0.001419
Loading maneuver chart data...
Computing Atmospheric mass density...
Loading historical data...
Loading historical data...
Loading historical data...
Loading historical data...
Loading historical data...
Loading historical data...
Loading historical data...

Documentation

Showing up to 5 results
|